This demonstration page uses our WeatherBlox Daily Observations layout. Learn more.

Left ArrowRight Arrow

39.01783, -85.05884

Hourly Observations for September 14, 2020

Temp ( °F °C ) Dew Point ( °F °C ) Humidity (%) Winds ( mph kmh ) Pressure ( in mb ) Visibility ( mi km ) Precip ( " mm )
12:52 am 00:52 Mostly Clear 69 20.6 59 15 70 70 NNE 7 11 30.15 1021 10 16 0.00 0.00
1:52 am 01:52 Mostly Clear 67 19.4 59 15 76 76 N 7 11 30.16 1022 10 16 0.00 0.00
2:52 am 02:52 Clear 65 18.3 59 15 81 81 N 9 15 30.17 1022 10 16 0.00 0.00
3:52 am 03:52 Clear 66 18.9 57 13.9 73 73 NNE 9 15 30.18 1022 10 16 0.00 0.00
4:52 am 04:52 Mostly Clear 64 17.8 57 13.9 78 78 N 7 11 30.19 1022 10 16 0.00 0.00
5:52 am 05:52 Clear 62 16.7 57 13.9 84 84 N 5 7 30.20 1023 10 16 0.00 0.00
6:52 am 06:52 Clear 60 15.6 57 13.9 90 90 N 8 13 30.22 1023 10 16 0.00 0.00
7:52 am 07:52 Mostly Cloudy 61 16.1 57 13.9 87 87 NNE 10 17 30.24 1024 10 16 0.00 0.00
8:52 am 08:52 Mostly Cloudy 63 17.2 57 13.9 81 81 NE 9 15 30.26 1025 10 16 0.00 0.00
9:52 am 09:52 Mostly Cloudy 66 18.9 58 14.4 75 75 ENE 10 17 30.27 1025 10 16 0.00 0.00
10:52 am 10:52 Partly Cloudy 70 21.1 59 15 68 68 NE 10 17 30.28 1026 10 16 0.00 0.00
11:52 am 11:52 Partly Cloudy 74 23.3 60 15.6 62 62 ENE 7 11 30.28 1026 10 16 0.00 0.00
12:52 pm 12:52 Partly Cloudy 76 24.4 60 15.6 58 58 ENE 10 17 30.27 1025 10 16 0.00 0.00
1:52 pm 13:52 Partly Cloudy 77 25 59 15 54 54 E 10 17 30.27 1025 10 16 0.00 0.00
2:52 pm 14:52 Mostly Sunny 77 25 57 13.9 50 50 E 9 15 30.26 1025 10 16 0.00 0.00
3:52 pm 15:52 Mostly Sunny 78 25.6 57 13.9 48 48 ENE 15 24 30.25 1024 10 16 0.00 0.00
4:52 pm 16:52 Mostly Cloudy 78 25.6 56 13.3 47 47 NE 15 24 30.24 1024 10 16 0.00 0.00
5:52 pm 17:52 Partly Cloudy 76 24.4 56 13.3 50 50 NE 10 17 30.24 1024 10 16 0.00 0.00
6:52 pm 18:52 Partly Cloudy 74 23.3 55 12.8 52 52 ENE 14 22 30.25 1024 10 16 0.00 0.00
7:52 pm 19:52 Mostly Clear 71 21.7 55 12.8 57 57 ENE 10 17 30.26 1025 10 16 0.00 0.00
8:52 pm 20:52 Clear 70 21.1 55 12.8 59 59 ENE 8 13 30.27 1025 10 16 0.00 0.00
9:52 pm 21:52 Clear 69 20.6 54 12.2 59 59 NE 14 22 30.29 1026 10 16 0.00 0.00
10:52 pm 22:52 Clear 67 19.4 53 11.7 61 61 ENE 15 24 30.29 1026 10 16 0.00 0.00
11:52 pm 23:52 Clear 65 18.3 52 11.1 63 63 NE 12 19 30.28 1026 10 16 0.00 0.00

Powered by AerisWeather